Blythe, CA

9:00 PM PDT on April 25, 2018 (GMT -0700)
Blythe

Weather History for KBLH - January, 2014

Change the Weather History Date:

Tuesday, January 28, 2014

  Actual Average Record
Temperature  
Mean Temperature 63 °F -  
Max Temperature 80 °F 67 °F 81 °F (2018)
Min Temperature 46 °F 43 °F 30 °F (1972)
Degree Days  
Heating Degree Days 2    
Growing Degree Days 13 (Base 50)    
Moisture  
Dew Point 21 °F    
Average Humidity 23    
Maximum Humidity 42    
Minimum Humidity 9    
Precipitation  
Precipitation 0.00 in - - ()
Sea Level Pressure  
Sea Level Pressure 30.04 in    
Wind  
Wind Speed 5 mph (NW)    
Max Wind Speed 10 mph    
Max Gust Speed -    
Visibility 10 miles    
Events      
Averages and records for this station are not official NWS values.
T = Trace of Precipitation, MM = Missing Value Source: NWS Daily Summary

Daily Weather History Graph

Daily Weather History Graph

Search for Another Location

Airport or City:

Astronomy

Jan. 28, 2014 Rise Set
Actual Time 6:37 AM PST 5:06 PM PST
Civil Twilight 6:11 AM PST 5:32 PM PST
Nautical Twilight 5:41 AM PST 6:02 PM PST
Astronomical Twilight 5:12 AM PST 6:32 PM PST
Moon 4:21 AM PST (1/28) 3:02 PM PST (1/28)
Length of Visible Light 11h 21m
Length of Day
10h 28m
Waning Crescent, 6% of the Moon is Illuminated
Jan 28
Waning Crescent
Jan 30
New
Feb 6
First Quarter
Feb 14
Full
Feb 22
Last Quarter

Hourly Weather History & Observations

Time (PST) Temp. Windchill Dew Point Humidity Pressure Visibility Wind Dir Wind Speed Gust Speed Precip Events Conditions
12:52 AM 55.9 °F - 15.1 °F 20% 30.00 in 10.0 mi WNW 3.5 mph - N/A   Clear
1:52 AM 53.1 °F - 16.0 °F 23% 29.99 in 10.0 mi West 5.8 mph - N/A   Clear
2:52 AM 46.0 °F 42.5 °F 24.1 °F 42% 30.01 in 10.0 mi ENE 6.9 mph - N/A   Clear
3:52 AM 46.0 °F 43.1 °F 21.9 °F 39% 30.01 in 10.0 mi North 5.8 mph - N/A   Clear
4:52 AM 46.9 °F - 21.0 °F 36% 30.02 in 10.0 mi North 4.6 mph - N/A   Clear
5:52 AM 46.0 °F - 19.9 °F 35% 30.03 in 10.0 mi Calm Calm - N/A   Clear
6:52 AM 48.9 °F - 19.0 °F 31% 30.06 in 10.0 mi Calm Calm - N/A   Clear
7:52 AM 51.1 °F - 19.9 °F 29% 30.08 in 10.0 mi Calm Calm - N/A   Clear
8:52 AM 57.9 °F - 18.0 °F 21% 30.11 in 10.0 mi SSE 3.5 mph - N/A   Clear
9:52 AM 62.1 °F - 21.0 °F 21% 30.11 in 10.0 mi SE 4.6 mph - N/A   Clear
10:52 AM 66.0 °F - 27.0 °F 23% 30.10 in 10.0 mi Calm Calm - N/A   Clear
11:52 AM 69.1 °F - 24.1 °F 18% 30.06 in 10.0 mi SSW 3.5 mph - N/A   Clear
12:52 PM 75.0 °F - 19.0 °F 12% 30.02 in 10.0 mi NW 8.1 mph - N/A   Clear
1:52 PM 80.1 °F - 17.1 °F 9% 30.00 in 10.0 mi North 10.4 mph - N/A   Clear
2:52 PM 80.1 °F - 17.1 °F 9% 29.99 in 10.0 mi North 10.4 mph - N/A   Clear
3:52 PM 77.0 °F - 25.0 °F 15% 29.99 in 10.0 mi South 3.5 mph - N/A   Clear
4:52 PM 72.0 °F - 30.0 °F 21% 30.00 in 10.0 mi South 8.1 mph - N/A   Clear
5:52 PM 68.0 °F - 28.0 °F 22% 30.01 in 10.0 mi West 4.6 mph - N/A   Clear
6:52 PM 66.9 °F - 28.0 °F 23% 30.02 in 10.0 mi SSW 3.5 mph - N/A   Clear
7:52 PM 62.1 °F - 21.9 °F 21% 30.04 in 10.0 mi NW 10.4 mph - N/A   Clear
8:52 PM 63.0 °F - 19.0 °F 18% 30.05 in 10.0 mi North 9.2 mph - N/A   Clear
9:52 PM 64.0 °F - 19.0 °F 18% 30.05 in 10.0 mi NNW 10.4 mph - N/A   Clear
10:52 PM 61.0 °F - 19.9 °F 21% 30.04 in 10.0 mi Calm Calm - N/A   Clear
11:52 PM 59.0 °F - 21.0 °F 23% 30.06 in 10.0 mi Calm Calm - N/A   Clear